This is the latest recevied weather packets stored in our database for station/object K7NDG. If no packets are shown the sender has not sent any weather packets the latest 10 day(s).
| Time | Temp. | Humidity | Pressure | Rain* | Wind** | Luminosity | Snow |
|---|---|---|---|---|---|---|---|
| 1777820351 | 12.22° C | 86% | 1014.3 hPa | 0 mm | - | 137 W/m² | - |
| 1777820049 | 12.22° C | 87% | 1014.3 hPa | 0 mm | - | 135 W/m² | - |
| 1777819745 | 11.67° C | 87% | 1014.2 hPa | 0 mm | - | 114 W/m² | - |
| 1777819444 | 11.67° C | 87% | 1014.1 hPa | 0 mm | - | 99 W/m² | - |
| 1777819142 | 11.67° C | 88% | 1014 hPa | 0 mm | - | 110 W/m² | - |
| 1777818838 | 11.11° C | 87% | 1014.1 hPa | 0 mm | - | 79 W/m² | - |
| 1777818534 | 11.11° C | 87% | 1014.3 hPa | 0 mm | - | 73 W/m² | - |
| 1777818232 | 11.11° C | 88% | 1014.2 hPa | 0 mm | - | 62 W/m² | - |
| 1777817927 | 11.67° C | 88% | 1014 hPa | 0 mm | - | 55 W/m² | - |
| 1777817625 | 11.67° C | 88% | 1014.1 hPa | 0 mm | - | 50 W/m² | - |
| 1777817322 | 11.67° C | 89% | 1014.1 hPa | 0 mm | - | 43 W/m² | - |
| 1777817019 | 11.11° C | 90% | 1014.1 hPa | 0 mm | - | 38 W/m² | - |
| 1777816714 | 11.11° C | 89% | 1014.1 hPa | 0 mm | - | 32 W/m² | - |
| 1777816412 | 11.11° C | 89% | 1014.1 hPa | 0 mm | - | 29 W/m² | - |
| 1777816110 | 11.11° C | 89% | 1014 hPa | 0 mm | - | 21 W/m² | - |
| 1777815807 | 11.11° C | 89% | 1014.1 hPa | 0 mm | - | 20 W/m² | - |
| 1777815505 | 11.11° C | 89% | 1014.2 hPa | 0 mm | - | 16 W/m² | - |
| 1777815202 | 11.11° C | 90% | 1014.1 hPa | 0 mm | - | 15 W/m² | - |
| 1777814898 | 10.56° C | 90% | 1013.8 hPa | 0 mm | - | 11 W/m² | - |
| 1777814595 | 10.56° C | 91% | 1013.9 hPa | 0 mm | - | 10 W/m² | - |
| 1777814292 | 10° C | 91% | 1013.8 hPa | 0 mm | - | 7 W/m² | - |
| 1777813988 | 10° C | 92% | 1013.9 hPa | 0 mm | - | 5 W/m² | - |
| 1777813686 | 10° C | 92% | 1014.1 hPa | 0 mm | - | 4 W/m² | - |
| 1777813383 | 10° C | 92% | 1013.9 hPa | 0 mm | - | 1 W/m² | - |
| 1777813081 | 10° C | 92% | 1013.9 hPa | 0 mm | - | 1 W/m² | - |
* Rain latest hour (hover to see other rain measurements)
** Current wind speed in m/s (hover to see current wind gust speed)